Torna al catalogo

COSMOS 2499 DEB

LostPO
NORAD 56578·DEBRIS·🇷🇺 Russia

Lanciato May 23, 2014 da Plesetsk Cosmodrome

Loading…

Prossimi Passaggi (prossime 24 ore)

TLE

ObsoletoSource: Space-Track

Epoca: Aug 10, 2026, 11:24 UTC

1 56578U 14028BM  26222.47513745  .00002188  00000-0  34739-2 0  9993
2 56578  82.1876 122.9302 0323747 350.3608   9.1400 13.30323185170994

Traccia COSMOS 2499 DEB in tempo reale con AllMySat

Download on the App Store